GW0126 Weather Reports


Display with metric or nautical units.
time (UTC)temp
F
wind
direction
speed
MPH
gust
MPH
rain 1hr
in
rain 24hr
in
rain mn
in
humidity
%
barometer
mb
20260510001918 42 173 0.0 0.0 0.00 0.00 0.00 96 1017.9
20260510000939 42 173 0.0 0.0 0.00 0.00 0.00 96 1017.9
20260509235838 42 173 0.0 0.0 0.00 0.00 0.00 96 1018.1
20260509235328 42 173 0.0 0.0 0.00 0.00 0.00 96 1018.0
20260509234818 43 173 0.0 0.0 0.00 0.00 0.00 96 1018.0
20260509234308 43 173 0.0 0.0 0.00 0.00 0.00 96 1018.1
20260509233758 43 173 0.0 0.0 0.00 0.00 0.00 96 1018.3
20260509233248 43 173 0.0 0.0 0.00 0.00 0.00 96 1018.1
20260509232741 43 173 0.0 0.0 0.00 0.00 0.00 95 1018.3
20260509232228 43 173 0.0 0.0 0.00 0.00 0.00 95 1018.3
20260509230736 43 173 0.0 0.0 0.00 0.00 0.00 95 1018.5
20260509230147 43 173 0.0 0.0 0.00 0.00 0.00 95 1018.5
20260509225128 43 173 0.0 0.0 0.00 0.00 0.00 95 1018.5
20260509224618 44 173 0.0 0.0 0.00 0.00 0.00 95 1018.7
20260509224107 44 173 0.0 0.0 0.00 0.00 0.00 95 1018.9
20260509222616 44 173 0.0 0.0 0.00 0.00 0.00 94 1018.7
20260509222106 44 173 0.0 0.0 0.00 0.00 0.00 94 1018.8
20260509221007 44 173 0.0 0.0 0.00 0.00 0.00 94 1018.6
20260509220457 45 173 0.0 0.0 0.00 0.00 0.00 94 1018.8
20260509215947 45 173 0.0 0.0 0.00 0.00 0.00 94 1018.6
20260509215516 45 173 0.0 0.0 0.00 0.00 0.00 93 1018.7
20260509215009 45 173 0.0 0.0 0.00 0.00 0.00 93 1018.9
20260509214417 45 173 0.0 0.0 0.00 0.00 0.00 93 1018.9
20260509213357 45 173 0.0 0.0 0.00 0.00 0.00 93 1018.9
20260509212847 45 173 0.0 0.0 0.00 0.00 0.00 92 1019.0
20260509211827 46 173 0.0 0.0 0.00 0.00 0.00 92 1018.9
20260509205747 47 173 0.0 0.0 0.00 0.00 0.00 91 1018.7
20260509203707 47 173 0.0 0.0 0.00 0.00 0.00 89 1018.9
20260509203157 47 173 0.0 0.0 0.00 0.00 0.00 89 1019.1
20260509202140 48 173 0.0 0.0 0.00 0.00 0.00 88 1019.2
20260509201627 48 173 0.0 0.0 0.00 0.00 0.00 88 1018.9
20260509201117 48 173 0.0 0.0 0.00 0.00 0.00 87 1019.1
20260509200057 49 173 0.0 0.0 0.00 0.00 0.00 85 1018.8
20260509195550 49 173 0.0 0.0 0.00 0.00 0.00 84 1019.0
20260509195037 49 173 0.0 0.0 0.00 0.00 0.00 83 1018.9
20260509194608 50 173 0.0 0.0 0.00 0.00 0.00 82 1018.8
20260509194017 50 173 0.0 0.0 0.00 0.00 0.00 81 1019.0
20260509193510 51 173 0.0 0.0 0.00 0.00 0.00 81 1018.9
20260509192957 51 173 0.0 0.0 0.00 0.00 0.00 80 1018.8
20260509191427 53 173 0.0 0.0 0.00 0.00 0.00 77 1018.6
20260509190917 53 173 0.0 0.0 0.00 0.00 0.00 76 1018.8
20260509190407 54 173 0.0 0.0 0.00 0.00 0.00 75 1018.8
20260509185935 54 173 0.0 0.0 0.00 0.00 0.00 73 1018.6
20260509184837 56 173 0.0 0.0 0.00 0.00 0.00 71 1018.7
20260509184327 56 173 0.0 0.0 0.00 0.00 0.00 70 1018.5
20260509183855 56 173 0.0 0.0 0.00 0.00 0.00 69 1018.7
20260509182247 58 173 0.0 0.0 0.00 0.00 0.00 66 1018.6
20260509181737 59 173 0.0 1.0 0.00 0.00 0.00 64 1018.6
20260509180839 59 172 0.0 0.0 0.00 0.00 0.00 63 1018.6
20260509180207 59 169 0.0 0.0 0.00 0.00 0.00 61 1018.5
20260509175657 60 169 0.0 2.0 0.00 0.00 0.00 61 1018.6
20260509175146 60 168 0.0 1.0 0.00 0.00 0.00 62 1018.5
20260509174637 60 168 0.0 0.0 0.00 0.00 0.00 62 1018.6
20260509174127 59 164 0.0 2.0 0.00 0.00 0.00 60 1018.5
20260509173616 60 215 1.0 1.0 0.00 0.00 0.00 61 1018.5
20260509173109 60 146 1.0 2.0 0.00 0.00 0.00 59 1018.4
20260509172047 60 241 0.0 1.0 0.00 0.00 0.00 59 1018.4
20260509171536 60 170 0.0 1.0 0.00 0.00 0.00 59 1018.7
20260509165535 61 200 0.0 1.0 0.00 0.00 0.00 58 1018.9
20260509163416 62 204 1.0 1.0 0.00 0.00 0.00 55 1019.0
20260509162906 62 212 0.0 1.0 0.00 0.00 0.00 56 1019.1
20260509162356 62 189 0.0 1.0 0.00 0.00 0.00 56 1019.0
20260509161336 62 224 0.0 1.0 0.00 0.00 0.00 57 1019.3
20260509160826 62 194 0.0 1.0 0.00 0.00 0.00 56 1019.1
20260509160316 62 227 0.0 0.0 0.00 0.00 0.00 58 1019.0
20260509155806 62 234 0.0 0.0 0.00 0.00 0.00 57 1019.3
20260509155256 62 230 1.0 1.0 0.00 0.00 0.00 57 1019.4
20260509154746 62 204 0.0 1.0 0.00 0.00 0.00 55 1019.4
20260509154239 62 241 1.0 1.0 0.00 0.00 0.00 56 1019.5
20260509153726 62 231 0.0 1.0 0.00 0.00 0.00 56 1019.6
20260509152319 62 280 2.0 3.0 0.00 0.00 0.00 55 1019.5
20260509151646 62 251 1.0 1.0 0.00 0.00 0.00 55 1019.9
20260509150626 63 214 0.0 0.0 0.00 0.00 0.00 56 1019.7
20260509145645 63 239 0.0 0.0 0.00 0.00 0.00 56 1019.9
20260509144114 62 205 0.0 1.0 0.00 0.00 0.00 56 1019.9
20260509143604 62 255 1.0 1.0 0.00 0.00 0.00 56 1019.9
20260509143016 62 272 2.0 2.0 0.00 0.00 0.00 57 1019.9
20260509142506 62 237 0.0 1.0 0.00 0.00 0.00 57 1019.9
20260509141959 62 246 0.0 1.0 0.00 0.00 0.00 57 1019.9
20260509140936 62 245 0.0 1.0 0.00 0.00 0.00 57 1020.2
20260509140505 62 214 0.0 2.0 0.00 0.00 0.00 57 1020.2
20260509133326 64 205 0.0 1.0 0.00 0.00 0.00 50 1020.4
20260509132307 63 198 0.0 3.0 0.00 0.00 0.00 49 1020.4
20260509131837 63 177 2.0 3.0 0.00 0.00 0.00 51 1020.3
20260509131246 63 181 0.0 1.0 0.00 0.00 0.00 54 1020.1
20260509130814 62 187 2.0 2.0 0.00 0.00 0.00 51 1020.4
20260509125716 63 188 0.0 1.0 0.00 0.00 0.00 51 1020.3
20260509124655 62 202 1.0 3.0 0.00 0.00 0.00 55 1020.7
20260509124145 63 184 0.0 1.0 0.00 0.00 0.00 53 1020.5
20260509123126 63 173 0.0 1.0 0.00 0.00 0.00 51 1020.6
20260509122616 63 201 0.0 2.0 0.00 0.00 0.00 51 1020.7
20260509122105 63 198 0.0 1.0 0.00 0.00 0.00 53 1020.8
20260509121555 63 172 0.0 1.0 0.00 0.00 0.00 52 1020.8
20260509121048 63 203 1.0 2.0 0.00 0.00 0.00 53 1021.0
20260509115515 61 201 0.0 1.0 0.00 0.00 0.00 56 1020.9
20260509113945 65 199 0.0 1.0 0.00 0.00 0.00 47 1021.1
20260509113435 65 217 1.0 3.0 0.00 0.00 0.00 48 1020.9
20260509111905 61 267 0.0 1.0 0.00 0.00 0.00 53 1020.9
20260509110845 61 276 1.0 2.0 0.00 0.00 0.00 55 1020.9
20260509110335 61 210 1.0 2.0 0.00 0.00 0.00 54 1021.2
20260509105315 62 176 0.0 2.0 0.00 0.00 0.00 52 1021.4
20260509104255 64 209 1.0 2.0 0.00 0.00 0.00 51 1021.4
20260509102725 66 206 0.0 1.0 0.00 0.00 0.00 45 1021.2
20260509102215 66 173 2.0 2.0 0.00 0.00 0.00 47 1021.4
20260509100135 64 174 1.0 1.0 0.00 0.00 0.00 50 1021.4
20260509094133 63 185 1.0 3.0 0.00 0.00 0.00 54 1021.4
20260509093545 62 185 1.0 1.0 0.00 0.00 0.00 53 1021.5
20260509093035 61 175 0.0 2.0 0.00 0.00 0.00 56 1021.7
20260509092525 62 165 0.0 2.0 0.00 0.00 0.00 55 1021.5
20260509092015 62 238 1.0 1.0 0.00 0.00 0.00 55 1021.6
20260509091033 62 218 0.0 1.0 0.00 0.00 0.00 60 1021.6
20260509085935 60 207 0.0 1.0 0.00 0.00 0.00 62 1021.4
20260509084915 58 257 0.0 1.0 0.00 0.00 0.00 67 1021.4
20260509084405 57 258 0.0 1.0 0.00 0.00 0.00 67 1021.5
20260509083855 57 267 1.0 2.0 0.00 0.00 0.00 71 1021.3
20260509082403 56 269 2.0 3.0 0.00 0.00 0.00 71 1021.5
20260509081815 56 257 0.0 0.0 0.00 0.00 0.00 73 1021.6
20260509081305 56 219 0.0 1.0 0.00 0.00 0.00 73 1021.8
20260509080755 56 253 1.0 1.0 0.00 0.00 0.00 73 1021.9
20260509080245 55 214 0.0 1.0 0.00 0.00 0.00 75 1021.8
20260509075735 54 237 0.0 1.0 0.00 0.00 0.00 76 1021.5
20260509074205 54 208 0.0 1.0 0.00 0.00 0.00 77 1021.7
20260509073654 53 251 0.0 0.0 0.00 0.00 0.00 78 1021.7
20260509073223 53 244 1.0 1.0 0.00 0.00 0.00 78 1021.6
20260509072713 53 219 0.0 1.0 0.00 0.00 0.00 78 1021.6
20260509072203 53 195 0.0 1.0 0.00 0.00 0.00 79 1021.5
20260509071615 52 230 0.0 0.0 0.00 0.00 0.00 80 1021.7
20260509071143 52 227 0.0 1.0 0.00 0.00 0.00 80 1021.6
20260509070045 51 236 0.0 0.0 0.00 0.00 0.00 81 1021.5
20260509065534 51 220 0.0 0.0 0.00 0.00 0.00 81 1021.5
20260509065028 51 238 1.0 2.0 0.00 0.00 0.00 81 1021.6
20260509064514 51 223 0.0 0.0 0.00 0.00 0.00 82 1021.5
20260509064043 51 198 0.0 1.0 0.00 0.00 0.00 81 1021.6
20260509062944 50 245 0.0 0.0 0.00 0.00 0.00 83 1021.4
20260509062513 49 245 0.0 1.0 0.00 0.00 0.00 83 1021.4
20260509061924 49 245 0.0 0.0 0.00 0.00 0.00 84 1021.3
20260509061414 48 249 0.0 0.0 0.00 0.00 0.00 85 1021.4
20260509061027 48 247 0.0 0.0 0.00 0.00 0.00 85 1021.4
20260509055846 48 248 0.0 0.0 0.00 0.00 0.00 86 1021.6
20260509055334 48 247 0.0 1.0 0.00 0.00 0.00 86 1021.3
20260509054824 47 247 1.0 1.0 0.00 0.00 0.00 86 1021.3
20260509052747 47 246 0.0 0.0 0.00 0.00 0.00 87 1021.3
20260509052234 47 246 0.0 0.0 0.00 0.00 0.00 87 1021.2
20260509050827 47 246 0.0 0.0 0.00 0.00 0.00 87 1021.2
20260509045134 47 246 0.0 0.0 0.00 0.00 0.00 88 1021.2
20260509044114 46 245 0.0 1.0 0.00 0.00 0.00 87 1021.3
20260509043604 46 245 0.0 0.0 0.00 0.00 0.00 88 1021.1
20260509043132 46 245 0.0 0.0 0.00 0.00 0.00 88 1021.1
20260509042544 46 245 0.0 0.0 0.00 0.00 0.00 88 1021.3
20260509042112 46 245 0.0 0.0 0.00 0.00 0.00 88 1020.9
20260509041524 46 245 0.0 0.0 0.00 0.00 0.00 88 1021.0
20260509040504 46 245 0.0 0.0 0.00 0.00 0.00 88 1021.0
20260509035954 46 245 0.0 0.0 0.00 0.00 0.00 88 1021.0
20260509035606 46 245 0.0 0.0 0.00 0.00 0.00 88 1021.1
20260509034934 46 245 0.0 0.0 0.00 0.00 0.00 88 1021.0
20260509034424 46 246 0.0 0.0 0.00 0.00 0.00 88 1021.0
20260509032422 46 245 0.0 0.0 0.00 0.00 0.00 88 1021.2
20260509031324 46 245 0.0 0.0 0.00 0.00 0.00 88 1020.8
20260509030814 46 245 0.0 0.0 0.00 0.00 0.00 87 1020.9
20260509030304 46 245 0.0 0.0 0.00 0.00 0.00 87 1021.0
20260509025754 46 245 0.0 0.0 0.00 0.00 0.00 87 1021.0
20260509024735 46 245 0.0 0.0 0.00 0.00 0.00 86 1021.2
20260509024224 46 245 0.0 0.0 0.00 0.00 0.00 86 1021.3
20260509023713 46 245 0.0 0.0 0.00 0.00 0.00 86 1020.9
20260509023204 46 245 0.0 0.0 0.00 0.00 0.00 86 1021.0
20260509022654 46 245 0.0 0.0 0.00 0.00 0.00 86 1021.0
20260509022144 46 245 0.0 0.0 0.00 0.00 0.00 86 1021.1
20260509021712 46 245 0.0 0.0 0.00 0.00 0.00 86 1021.1
20260509021249 46 245 0.0 0.0 0.00 0.00 0.00 86 1021.0
20260509020226 46 245 0.0 0.0 0.00 0.00 0.00 86 1021.1
20260509015043 47 245 0.0 0.0 0.00 0.00 0.00 86 1021.1
20260509014533 47 245 0.0 0.0 0.00 0.00 0.00 86 1021.2
20260509013513 47 245 0.0 0.0 0.00 0.00 0.00 86 1021.1
20260509013042 47 245 0.0 0.0 0.00 0.00 0.00 86 1021.2
20260509012453 47 245 0.0 0.0 0.00 0.00 0.00 86 1021.0
20260509011943 47 245 0.0 0.0 0.00 0.00 0.00 85 1020.9
20260509011434 47 245 0.0 0.0 0.00 0.00 0.00 85 1020.8
20260509010923 47 245 0.0 0.0 0.00 0.00 0.00 84 1020.9
20260509010413 47 245 0.0 0.0 0.00 0.00 0.00 84 1021.1
20260509005353 47 245 0.0 0.0 0.00 0.00 0.00 84 1021.1
20260509004925 47 245 0.0 0.0 0.00 0.00 0.00 83 1021.0
20260509004333 47 245 0.0 0.0 0.00 0.00 0.00 83 1020.8
20260509003905 47 245 0.0 0.0 0.00 0.00 0.00 83 1020.8